Location: Unspecified
(0.0000°N, 0.0000°E)
Time: 22:56:05
(UTC+00:00)

Tiangong - Pass Details

Date: 28 September 2023
Orbit: 373 x 383 km, 41.5° (Epoch: 04 December)

Event Time Altitude Azimuth Distance (km) Brightness Sun altitude
Exits shadow 05:17:20 - 245° (WSW) 1,450 0.2 -8.4°
Reaches altitude 10° 05:17:58 10° 234° (SW) 1,377 0.2 -8.2°
Maximum altitude 05:18:36 10° 222° (SW) 1,352 0.2 -8.1°
Drops below altitude 10° 05:19:14 10° 210° (SSW) 1,380 0.4 -7.9°
Sets 05:22:50 0° 167° (SSE) 2,242 1.9 -7.0°
